TVF56TJ LFPO-LFMN

Flight info

Callsign TVF56TJ
Flight time 1h 7m
Altitude 35000
Route LATRA DCT LAMUT DCT UTUVA DCT LERGA DCT LIQID DCT LATAM DCT TUNUR DCT NISAR
Aircraft A320/M-SDE3FGHIRWY/LB1

Departure

Time 2026-05-05 20:50
Airport Paris-Orly Airport (LFPO)

Arrival

Time 2026-05-05 21:57
Airport Nice-Côte d'Azur Airport (LFMN)
Time Latitude Longitude Altitude Speed Heading
2026-05-05 20:35 48.72599 2.36168 296 ft 0 kts 337°
2026-05-05 20:44 48.72589 2.36174 308 ft 4 kts 337°
2026-05-05 20:44 48.72563 2.36189 306 ft 4 kts 338°
2026-05-05 20:45 48.72520 2.36219 307 ft 4 kts 311°
2026-05-05 20:45 48.72511 2.36252 305 ft 4 kts 259°
2026-05-05 20:45 48.72516 2.36284 306 ft 1 kts 255°
2026-05-05 20:46 48.72517 2.36284 306 ft 0 kts 255°
2026-05-05 20:47 48.72516 2.36283 306 ft 2 kts 255°
2026-05-05 20:47 48.72474 2.36232 306 ft 8 kts 172°
2026-05-05 20:47 48.72418 2.36185 305 ft 15 kts 236°
2026-05-05 20:47 48.72385 2.36025 305 ft 15 kts 254°
2026-05-05 20:48 48.72360 2.35890 305 ft 12 kts 254°
2026-05-05 20:48 48.72338 2.35773 305 ft 11 kts 254°
2026-05-05 20:48 48.72316 2.35660 302 ft 11 kts 249°
2026-05-05 20:48 48.72237 2.35600 304 ft 12 kts 172°
2026-05-05 20:49 48.72146 2.35633 307 ft 18 kts 166°
2026-05-05 20:49 48.72048 2.35721 306 ft 19 kts 130°
2026-05-05 20:49 48.71974 2.35911 304 ft 20 kts 99°
2026-05-05 20:49 48.72014 2.36227 309 ft 60 kts 75°
2026-05-05 20:50 48.72187 2.37173 304 ft 124 kts 74°
2026-05-05 20:50 48.72465 2.38658 482 ft 159 kts 70°
2026-05-05 20:50 48.72756 2.40280 1267 ft 160 kts 73°
2026-05-05 20:50 48.73059 2.41919 2077 ft 163 kts 68°
2026-05-05 20:51 48.73378 2.43691 2453 ft 187 kts 69°
2026-05-05 20:51 48.73758 2.45733 2850 ft 214 kts 70°
2026-05-05 20:51 48.74132 2.48052 3357 ft 240 kts 78°
2026-05-05 20:51 48.74303 2.50660 4104 ft 254 kts 84°
2026-05-05 20:52 48.74378 2.53344 5051 ft 261 kts 85°
2026-05-05 20:52 48.74371 2.56120 6015 ft 268 kts 96°
2026-05-05 20:52 48.73737 2.58816 6839 ft 278 kts 120°
2026-05-05 20:52 48.72370 2.60891 7751 ft 284 kts 148°
2026-05-05 20:53 48.70508 2.61849 8731 ft 285 kts 176°
2026-05-05 20:53 48.68562 2.61464 9745 ft 284 kts 199°
2026-05-05 20:53 48.66663 2.60487 10371 ft 298 kts 199°
2026-05-05 20:53 48.64621 2.59418 10693 ft 322 kts 199°
2026-05-05 20:54 48.62425 2.58268 11055 ft 342 kts 199°
2026-05-05 20:54 48.60154 2.57081 11827 ft 347 kts 200°
2026-05-05 20:54 48.57875 2.55898 12532 ft 350 kts 200°
2026-05-05 20:54 48.55566 2.54706 13170 ft 352 kts 200°
2026-05-05 20:55 48.53178 2.53858 13968 ft 356 kts 185°
2026-05-05 20:55 48.50717 2.53679 14652 ft 360 kts 184°
2026-05-05 20:55 48.48203 2.53550 15363 ft 364 kts 182°
2026-05-05 20:55 48.45658 2.53436 16061 ft 367 kts 182°
2026-05-05 20:56 48.43089 2.53327 16770 ft 370 kts 182°
2026-05-05 20:56 48.40500 2.53215 17443 ft 374 kts 183°
2026-05-05 20:56 48.37886 2.53098 18126 ft 377 kts 183°
2026-05-05 20:56 48.35255 2.52975 18704 ft 381 kts 182°
2026-05-05 20:57 48.32591 2.52847 19276 ft 384 kts 182°
2026-05-05 20:57 48.29912 2.52715 19842 ft 387 kts 182°
2026-05-05 20:57 48.27212 2.52582 20399 ft 390 kts 182°
2026-05-05 20:57 48.24488 2.52447 20969 ft 393 kts 182°
2026-05-05 20:58 48.21731 2.52312 21488 ft 397 kts 181°
2026-05-05 20:58 48.18956 2.52178 22023 ft 401 kts 181°
2026-05-05 20:58 48.16156 2.52044 22583 ft 403 kts 181°
2026-05-05 20:58 48.13346 2.51913 23129 ft 406 kts 181°
2026-05-05 20:59 48.10512 2.51810 23604 ft 409 kts 178°
2026-05-05 20:59 48.07674 2.52235 24031 ft 411 kts 168°
2026-05-05 20:59 48.04914 2.53360 24455 ft 413 kts 161°
2026-05-05 20:59 48.02176 2.54729 24877 ft 415 kts 161°
2026-05-05 21:00 48.00365 2.55626 25188 ft 415 kts 161°
2026-05-05 21:00 47.97614 2.56976 25659 ft 416 kts 162°
2026-05-05 21:00 47.94858 2.58325 26111 ft 417 kts 161°
2026-05-05 21:00 47.91186 2.60121 26662 ft 420 kts 161°
2026-05-05 21:01 47.88397 2.61487 27066 ft 423 kts 161°
2026-05-05 21:01 47.86506 2.62413 27327 ft 425 kts 161°
2026-05-05 21:01 47.83690 2.63791 27712 ft 427 kts 161°
2026-05-05 21:01 47.80855 2.65176 28095 ft 430 kts 161°
2026-05-05 21:02 47.78005 2.66567 28470 ft 432 kts 161°
2026-05-05 21:02 47.75144 2.67966 28834 ft 434 kts 161°
2026-05-05 21:02 47.72260 2.69376 29198 ft 436 kts 161°
2026-05-05 21:02 47.69368 2.70786 29544 ft 438 kts 161°
2026-05-05 21:03 47.66501 2.72183 29878 ft 441 kts 161°
2026-05-05 21:03 47.63585 2.73602 30161 ft 443 kts 162°
2026-05-05 21:03 47.60647 2.75025 30436 ft 445 kts 162°
2026-05-05 21:03 47.57695 2.76451 30703 ft 447 kts 162°
2026-05-05 21:04 47.54733 2.77882 30979 ft 448 kts 162°
2026-05-05 21:04 47.51769 2.79316 31349 ft 447 kts 162°
2026-05-05 21:04 47.48811 2.80747 31733 ft 447 kts 162°
2026-05-05 21:04 47.45858 2.82173 32099 ft 446 kts 162°
2026-05-05 21:05 47.42907 2.83598 32453 ft 446 kts 162°
2026-05-05 21:05 47.39956 2.85018 32819 ft 445 kts 162°
2026-05-05 21:05 47.37005 2.86435 33173 ft 445 kts 162°
2026-05-05 21:05 47.34065 2.87846 33555 ft 445 kts 163°
2026-05-05 21:06 47.31124 2.89257 33912 ft 444 kts 163°
2026-05-05 21:06 47.28184 2.90668 34199 ft 444 kts 163°
2026-05-05 21:06 47.25242 2.92077 34507 ft 444 kts 163°
2026-05-05 21:06 47.22304 2.93481 34791 ft 444 kts 163°
2026-05-05 21:07 47.16471 2.96264 34894 ft 442 kts 163°
2026-05-05 21:07 47.10632 2.99025 34896 ft 440 kts 164°
2026-05-05 21:08 47.04756 3.01519 34899 ft 439 kts 166°
2026-05-05 21:08 46.98846 3.03871 34903 ft 439 kts 166°
2026-05-05 21:09 46.92951 3.06237 34905 ft 439 kts 166°
2026-05-05 21:09 46.87099 3.08629 34904 ft 439 kts 166°
2026-05-05 21:10 46.81224 3.11037 34914 ft 438 kts 166°
2026-05-05 21:10 46.75347 3.13444 34913 ft 438 kts 166°
2026-05-05 21:11 46.69473 3.15838 34912 ft 438 kts 166°
2026-05-05 21:11 46.63598 3.18213 34911 ft 438 kts 166°
2026-05-05 21:12 46.57724 3.20598 34912 ft 438 kts 166°
2026-05-05 21:12 46.51850 3.22969 34898 ft 438 kts 166°
2026-05-05 21:13 46.45975 3.25338 34901 ft 438 kts 166°
2026-05-05 21:13 46.40110 3.27706 34906 ft 438 kts 166°
2026-05-05 21:14 46.34238 3.30061 34911 ft 437 kts 166°
2026-05-05 21:14 46.28336 3.32408 34917 ft 446 kts 167°
2026-05-05 21:15 46.22334 3.34806 34914 ft 452 kts 166°
2026-05-05 21:15 46.16263 3.37241 34909 ft 453 kts 166°
2026-05-05 21:16 46.10210 3.39746 34914 ft 454 kts 161°
2026-05-05 21:16 46.07419 3.41901 34913 ft 459 kts 147°
2026-05-05 21:16 46.04844 3.44637 34909 ft 460 kts 146°
2026-05-05 21:17 45.99726 3.50185 34917 ft 461 kts 146°
2026-05-05 21:17 45.94611 3.55749 34918 ft 460 kts 146°
2026-05-05 21:18 45.89530 3.61245 34915 ft 460 kts 146°
2026-05-05 21:18 45.84394 3.66755 34903 ft 461 kts 146°
2026-05-05 21:19 45.79242 3.72260 34893 ft 463 kts 146°
2026-05-05 21:19 45.74064 3.77787 34895 ft 465 kts 146°
2026-05-05 21:20 45.68872 3.83329 34897 ft 465 kts 147°
2026-05-05 21:20 45.63681 3.88861 34905 ft 466 kts 147°
2026-05-05 21:21 45.58470 3.94391 34906 ft 466 kts 147°
2026-05-05 21:21 45.53254 3.99914 34918 ft 467 kts 147°
2026-05-05 21:22 45.48033 4.05431 34920 ft 467 kts 147°
2026-05-05 21:22 45.42810 4.10938 34925 ft 467 kts 147°
2026-05-05 21:23 45.37578 4.16440 34930 ft 468 kts 147°
2026-05-05 21:23 45.32343 4.21932 34930 ft 467 kts 147°
2026-05-05 21:24 45.27135 4.27379 34900 ft 467 kts 148°
2026-05-05 21:24 45.21892 4.32854 34912 ft 468 kts 148°
2026-05-05 21:25 45.16653 4.38322 34918 ft 467 kts 148°
2026-05-05 21:25 45.11406 4.43771 34928 ft 468 kts 148°
2026-05-05 21:26 45.06158 4.49212 34919 ft 467 kts 148°
2026-05-05 21:26 45.00908 4.54644 34924 ft 468 kts 148°
2026-05-05 21:27 44.95656 4.60071 34906 ft 468 kts 149°
2026-05-05 21:27 44.90432 4.65445 34924 ft 468 kts 149°
2026-05-05 21:28 44.85175 4.70847 34924 ft 467 kts 149°
2026-05-05 21:28 44.79917 4.76241 34949 ft 467 kts 149°
2026-05-05 21:29 44.74657 4.81612 34950 ft 467 kts 149°
2026-05-05 21:29 44.69391 4.86969 34944 ft 467 kts 149°
2026-05-05 21:30 44.64128 4.92323 34950 ft 467 kts 149°
2026-05-05 21:30 44.58869 4.97677 34934 ft 466 kts 150°
2026-05-05 21:31 44.53682 5.02949 34450 ft 459 kts 150°
2026-05-05 21:31 44.51127 5.05547 34210 ft 449 kts 149°
2026-05-05 21:31 44.48758 5.08404 33702 ft 453 kts 141°
2026-05-05 21:32 44.46668 5.11695 33444 ft 451 kts 139°
2026-05-05 21:32 44.44599 5.15002 33123 ft 451 kts 139°
2026-05-05 21:32 44.42529 5.18285 32800 ft 450 kts 139°
2026-05-05 21:32 44.40460 5.21547 32465 ft 449 kts 139°
2026-05-05 21:33 44.38381 5.24813 32122 ft 447 kts 140°
2026-05-05 21:33 44.36162 5.27780 31744 ft 438 kts 148°
2026-05-05 21:33 44.33773 5.30412 31212 ft 436 kts 149°
2026-05-05 21:33 44.31389 5.33012 30724 ft 435 kts 149°
2026-05-05 21:34 44.29010 5.35600 30231 ft 432 kts 151°
2026-05-05 21:34 44.26651 5.38168 29726 ft 429 kts 150°
2026-05-05 21:34 44.24292 5.40727 29233 ft 430 kts 150°
2026-05-05 21:34 44.21923 5.43286 28760 ft 431 kts 150°
2026-05-05 21:35 44.19540 5.45858 28267 ft 432 kts 149°
2026-05-05 21:35 44.17175 5.48419 27782 ft 431 kts 149°
2026-05-05 21:35 44.14814 5.50984 27299 ft 429 kts 149°
2026-05-05 21:35 44.12467 5.53537 26816 ft 427 kts 149°
2026-05-05 21:36 44.10136 5.56071 26341 ft 424 kts 148°
2026-05-05 21:36 44.07812 5.58591 25860 ft 422 kts 149°
2026-05-05 21:36 44.05496 5.61095 25394 ft 420 kts 148°
2026-05-05 21:36 44.03196 5.63576 24922 ft 418 kts 148°
2026-05-05 21:37 44.00902 5.66045 24458 ft 416 kts 148°
2026-05-05 21:37 43.98619 5.68499 23987 ft 414 kts 148°
2026-05-05 21:37 43.96345 5.70942 23616 ft 412 kts 147°
2026-05-05 21:37 43.94102 5.73350 23336 ft 414 kts 147°
2026-05-05 21:38 43.91824 5.75791 23059 ft 413 kts 147°
2026-05-05 21:38 43.89553 5.78223 22785 ft 412 kts 147°
2026-05-05 21:38 43.87287 5.80648 22479 ft 410 kts 147°
2026-05-05 21:38 43.85035 5.83055 22236 ft 408 kts 147°
2026-05-05 21:39 43.82826 5.85515 21631 ft 406 kts 141°
2026-05-05 21:39 43.81003 5.88496 20524 ft 403 kts 133°
2026-05-05 21:39 43.79314 5.91560 19547 ft 394 kts 133°
2026-05-05 21:39 43.77699 5.94523 19008 ft 375 kts 133°
2026-05-05 21:40 43.76142 5.97376 18521 ft 370 kts 133°
2026-05-05 21:40 43.74587 6.00196 17996 ft 367 kts 133°
2026-05-05 21:40 43.73043 6.02983 17486 ft 364 kts 133°
2026-05-05 21:40 43.71526 6.05712 17015 ft 361 kts 133°
2026-05-05 21:41 43.69997 6.08457 16527 ft 358 kts 133°
2026-05-05 21:41 43.68480 6.11171 16011 ft 355 kts 133°
2026-05-05 21:41 43.66975 6.13864 15514 ft 353 kts 133°
2026-05-05 21:41 43.65475 6.16549 14978 ft 352 kts 133°
2026-05-05 21:42 43.63980 6.19226 14458 ft 352 kts 132°
2026-05-05 21:42 43.62471 6.21935 13929 ft 362 kts 132°
2026-05-05 21:42 43.60914 6.24681 13381 ft 364 kts 133°
2026-05-05 21:42 43.59302 6.27367 12774 ft 361 kts 134°
2026-05-05 21:43 43.57671 6.29982 12211 ft 358 kts 134°
2026-05-05 21:43 43.56044 6.32550 11859 ft 355 kts 134°
2026-05-05 21:43 43.54422 6.35111 11603 ft 353 kts 134°
2026-05-05 21:43 43.52814 6.37661 11353 ft 352 kts 134°
2026-05-05 21:44 43.51237 6.40172 11107 ft 350 kts 134°
2026-05-05 21:44 43.49647 6.42712 10858 ft 349 kts 133°
2026-05-05 21:44 43.48052 6.45271 10614 ft 347 kts 133°
2026-05-05 21:44 43.46492 6.47783 10347 ft 341 kts 133°
2026-05-05 21:45 43.44978 6.50223 10105 ft 329 kts 133°
2026-05-05 21:45 43.43535 6.52541 9873 ft 318 kts 133°
2026-05-05 21:45 43.42587 6.54061 9786 ft 301 kts 133°
2026-05-05 21:45 43.40840 6.56843 9612 ft 286 kts 133°
2026-05-05 21:46 43.39538 6.58898 9477 ft 283 kts 133°
2026-05-05 21:46 43.38688 6.60248 9386 ft 282 kts 133°
2026-05-05 21:46 43.37224 6.63205 9211 ft 285 kts 108°
2026-05-05 21:46 43.37071 6.65000 9124 ft 288 kts 87°
2026-05-05 21:47 43.37532 6.67699 8976 ft 294 kts 72°
2026-05-05 21:47 43.38332 6.70311 8492 ft 296 kts 67°
2026-05-05 21:47 43.39205 6.72859 8050 ft 295 kts 67°
2026-05-05 21:47 43.40033 6.75410 7535 ft 289 kts 69°
2026-05-05 21:48 43.40777 6.77959 6901 ft 284 kts 72°
2026-05-05 21:48 43.41448 6.80489 6291 ft 279 kts 73°
2026-05-05 21:48 43.42066 6.82993 5682 ft 274 kts 74°
2026-05-05 21:48 43.42646 6.85435 5376 ft 258 kts 74°
2026-05-05 21:49 43.43172 6.87672 5318 ft 234 kts 74°
2026-05-05 21:49 43.43646 6.89706 5260 ft 213 kts 75°
2026-05-05 21:49 43.44190 6.91513 5234 ft 198 kts 59°
2026-05-05 21:49 43.45055 6.92884 5173 ft 182 kts 47°
2026-05-05 21:50 43.45908 6.94042 5093 ft 163 kts 47°
2026-05-05 21:50 43.46672 6.95083 5039 ft 149 kts 47°
2026-05-05 21:50 43.47392 6.96065 4896 ft 147 kts 47°
2026-05-05 21:50 43.48111 6.97047 4717 ft 145 kts 47°
2026-05-05 21:51 43.48825 6.98028 4499 ft 144 kts 47°
2026-05-05 21:51 43.49540 6.98999 4268 ft 144 kts 47°
2026-05-05 21:51 43.50250 6.99962 4066 ft 143 kts 45°
2026-05-05 21:51 43.50955 7.00915 3875 ft 141 kts 46°
2026-05-05 21:52 43.52331 7.02804 3496 ft 138 kts 47°
2026-05-05 21:52 43.53012 7.03730 3336 ft 137 kts 46°
2026-05-05 21:52 43.53687 7.04648 3151 ft 135 kts 46°
2026-05-05 21:53 43.54346 7.05562 2955 ft 135 kts 45°
2026-05-05 21:53 43.55009 7.06470 2771 ft 132 kts 47°
2026-05-05 21:53 43.55662 7.07369 2594 ft 131 kts 46°
2026-05-05 21:53 43.56319 7.08254 2418 ft 131 kts 46°
2026-05-05 21:54 43.56960 7.09121 2271 ft 130 kts 46°
2026-05-05 21:54 43.57604 7.10007 2103 ft 131 kts 47°
2026-05-05 21:54 43.58248 7.10891 1923 ft 130 kts 46°
2026-05-05 21:54 43.58891 7.11762 1770 ft 129 kts 46°
2026-05-05 21:55 43.59521 7.12619 1620 ft 127 kts 46°
2026-05-05 21:55 43.60147 7.13489 1378 ft 127 kts 46°
2026-05-05 21:55 43.60770 7.14352 1185 ft 127 kts 47°
2026-05-05 21:55 43.61394 7.15207 1042 ft 126 kts 46°
2026-05-05 21:56 43.62023 7.16059 903 ft 128 kts 47°
2026-05-05 21:56 43.62657 7.16917 755 ft 127 kts 45°
2026-05-05 21:56 43.63285 7.17773 559 ft 126 kts 46°
2026-05-05 21:56 43.63901 7.18633 392 ft 126 kts 46°
2026-05-05 21:57 43.64513 7.19486 261 ft 124 kts 46°
2026-05-05 21:57 43.65121 7.20318 95 ft 123 kts 46°
2026-05-05 21:57 43.65690 7.21111 26 ft 100 kts 45°
2026-05-05 21:57 43.65974 7.21490 21 ft 26 kts 44°
2026-05-05 21:58 43.66130 7.21715 21 ft 33 kts 48°
2026-05-05 21:58 43.66235 7.21716 21 ft 13 kts 297°
2026-05-05 21:58 43.66264 7.21668 21 ft 0 kts 315°
2026-05-05 21:58 43.66265 7.21667 21 ft 0 kts 315°